Regional Weather Roundup
Issued by NWS

Home | Current Version | Previous Version | Graphics & Text | Print | Product List | Glossary On
Versions: 1 2 3 4 5 6 7 8 9 10 11 12 13 14 15 16 17 18 19 20 21 22 23 24 25 26 27 28 29 30 31 32 33 34 35 36 37 38 39 40 41 42 43 44 45 46 47 48 49 50
000
ASUS43 KMKX 242300
RWRWI

WISCONSIN REGIONAL WEATHER ROUNDUP
NATIONAL WEATHER SERVICE MILWAUKEE/SULLIVAN WI
600 PM CDT SAT JUN 24 2017

NOTE: "FAIR" INDICATES FEW OR NO CLOUDS BELOW 12,000 FEET WITH NO
SIGNIFICANT WEATHER AND/OR OBSTRUCTIONS TO VISIBILITY.

WIZ001-002-006>008-014>016-023>028-250000-
NORTHWEST WISCONSIN

CITY           SKY/WX    TMP DP  RH WIND       PRES   REMARKS
SUPERIOR ARPT  NOT AVBL
ASHLAND        CLOUDY    60  48  64 W9        29.94S
HAYWARD        LGT RAIN  56  48  74 VRB3      29.97S
SIREN          MOSUNNY   64  41  42 NW10      29.98S
CUMBERLAND     SUNNY     59  43  55 W16       29.98S
RICE LAKE      SUNNY     62  42  48 W10       29.99F
CHETEK         SUNNY     61  45  56 NW5G20    29.98F
LADYSMITH      MOSUNNY   62  46  55 W10G17    29.97S
EAU CLAIRE     NOT AVBL
MENOMONIE      CLOUDY    62  46  57 W9        30.00S
NEW RICHMOND   MOSUNNY   60  48  64 W10       30.00F
OSCEOLA        MOSUNNY   64  42  44 W12G18    30.02S
$$

WIZ003>005-009-010-017-018-250000-
NORTH CENTRAL WISCONSIN

CITY           SKY/WX    TMP DP  RH WIND       PRES   REMARKS
MANITOWISH WTR CLOUDY    57  46  65 W14       29.94R
ARBOR VITAE    PTSUNNY   62  47  59 W9G18     29.93S
WOODRUFF       PTSUNNY   62  47  59 W9G18     29.93S
RHINELANDER    PTSUNNY   54  49  83 W12       29.95R
EAGLE RIVER    PTSUNNY   56  50  79 W3        29.93F
LAND O LAKES   RAIN      53  50  90 NW6       29.94F
PHILLIPS       CLOUDY    56  49  75 NW7       29.95R
TOMAHAWK       NOT AVBL
MEDFORD        MOSUNNY   61  43  52 W12G23    29.95F
MERRILL        MOSUNNY   64  45  50 W17G24    29.94F
$$

WIZ029-030-035-036-043>047-250000-
CENTRAL WISCONSIN

CITY           SKY/WX    TMP DP  RH WIND       PRES   REMARKS
WAUSAU         SUNNY     62  45  53 NW10      29.93F
MOSINEE        PTSUNNY   64  41  42 W20       29.95F
MARSHFIELD     CLOUDY    61  43  51 W10G22    29.95S
STEVENS POINT  MOSUNNY   64  41  42 W13G21    29.95S
WAUPACA        MOSUNNY   69  40  34 W15       29.94S
WAUTOMA        MOSUNNY   66  43  43 W15G22    29.97R
WISC RAPIDS    PTSUNNY   67  42  40 W14G29    29.97S
CAMP DOUGLAS   NOT AVBL
$$

WIZ011>013-019>022-031-037>040-048>050-250000-
NORTHEAST WISCONSIN

CITY           SKY/WX    TMP DP  RH WIND       PRES   REMARKS
ANTIGO         CLOUDY    63  46  55 W14G24    29.93S
SHAWANO        PTSUNNY   69  43  39 W8G16     29.91F
OCONTO         CLOUDY    67  46  47 W6        29.89F
STURGEON BAY     N/A     63  54  72 N9          N/A
GREEN BAY      SUNNY     69  43  38 W16       29.91F
MANITOWOC      NOT AVBL
APPLETON       MOSUNNY   66  37  34 W18G24    29.92F
CLINTONVILLE   PTSUNNY   68  41  37 W17       29.91F
OSHKOSH        MOSUNNY   67  41  38 W15G21    29.93F
$$

WIZ032>034-041-042-053>061-250000-
SOUTHWEST WISCONSIN

CITY           SKY/WX    TMP DP  RH WIND       PRES   REMARKS
LA CROSSE      TSTM      57  49  74 N21G33    30.04R
SPARTA         CLOUDY    59  49  67 SW6       30.01F
VIROQUA        CLOUDY    56  50  80 CALM      30.02F
BOSCOBEL       CLOUDY    58  53  84 S5        30.04F
PRAIRIE DU CHI LGT RAIN  57  51  80 E3        30.03F
PLATTEVILLE    PTSUNNY   66  47  49 W31G41    30.06R
$$

WIZ056-057-062-063-064-067-068-250000-
SOUTH CENTRAL WISCONSIN

CITY           SKY/WX    TMP DP  RH WIND       PRES   REMARKS
REEDSBURG      LGT RAIN  58  46  64 W20G40    30.04R
BARABOO/DELLS  PTSUNNY   64  41  42 W17G24    30.00R
LONE ROCK      LGT RAIN  56  51  84 SW3       30.03R
MINERAL POINT  CLOUDY    66  43  42 W20G31    30.03R
MADISON        MOSUNNY   68  44  42 W9        29.98S
MIDDLETON      MOSUNNY   70  46  41 W15       30.00S
WATERTOWN      MOSUNNY   68  45  42 NW14G21   29.97F
MONROE         MOSUNNY   68  39  34 W14G20    30.00F
JANESVILLE     MOSUNNY   72  39  30 NW14G25   29.99F
$$

WIZ051-052-058>065-066-070>072-250000-
SOUTHEAST WISCONSIN

CITY           SKY/WX    TMP DP  RH WIND       PRES   REMARKS
MILWAUKEE      MOSUNNY   72  41  32 W17G28    29.96S
WAUKESHA       MOSUNNY   66  41  39 W18G28    29.98S
MILWAUKEE/TIMM MOSUNNY   68  37  32 W20G26    29.96F
RACINE         MOSUNNY   71  44  37 W15G23    29.98S
KENOSHA        MOSUNNY   70  45  40 W20G29    29.98R
FOND DU LAC    MOSUNNY   68  41  37 NW20G25   29.94F
SHEBOYGAN      MOSUNNY   68  46  45 W15G26    29.93S
WEST BEND      MOSUNNY   68  37  32 W18G29    29.95F
JUNEAU         MOSUNNY   67  42  40 W16G23    29.98S
$$

LSZ147-162-250000-
LAKE SUPERIOR

STATION/POSITION TIME  TEMP    WIND        PRES    WAVE
                       AIR SEA DIR/SP/G            HT/PER
                 (UTC) (F)     (DEG/KT/KT) (MB)    (FT/S)
W MID LAKE BUOY  2150   44 39  240/  8/  8 1013.1R   2/ 4
DEVILS ISLAND    2200   53     260/ 11/ 12 1013.6R
SAXON HARBOR     2240   60     220/  6/ 10 1013.2S
$$

LMZ867-665-643>646-250000-
LAKE MICHIGAN

STATION/POSITION TIME  TEMP    WIND        PRES    WAVE
                       AIR SEA DIR/SP/G            HT/PER
                 (UTC) (F)     (DEG/KT/KT) (MB)    (FT/S)
CHAMBERS ISLAND  2240   61     310/  6/ 10 1012.2F
S GREEN BAY BUOY 2230   62      40/  8/ 10 1012.6F
N MID LAKE BUOY  2150   59 58  260/  8/ 10 1012.9R   1
NORTHPORT PIER   2240   60     300/  8/ 13 1012.5S
KEWAUNEE LAKESHO 2230   67     280/  9/ 14 1012.3F
SHEBOYGAN LAKESH 2200   67     270/ 16/ 21 1013.2S
PORT WASHINGTON  2240   71     250/  7/ 15 1014.6S
ATWATER BUOY     2109   65 60  280/ 14/ 16 1014.7R
MILWAUKEE LAKESH 2230   68     290/ 15/ 17   N/A
S MID LAKE BUOY  2150   64 63  250/  2/  4 1014.7F   1/ 3
KENOSHA   LAKESH 2200   71     270/ 16/ 27 1014.2
$$

TC  - TEMPERATURE IN CELSIUS
VSB - VISIBILITY IN STATUTE MILES
WCI - WIND CHILL INDEX
HX  - HEAT INDEX





USA.gov is the U.S. government's official web portal to all federal, state and local government web resources and services.